Weather History for Caldwell, NJ

Change the Weather History Date:

Tuesday, November 20, 2012

  Actual Average Record
Temperature  
Mean Temperature 40 °F -  
Max Temperature 51 °F 51 °F 70 °F (1953)
Min Temperature 28 °F 31 °F 14 °F (1984)
Degree Days  
Heating Degree Days 26    
Moisture  
Dew Point 29 °F    
Average Humidity 72    
Maximum Humidity 92    
Minimum Humidity 41    
Precipitation  
Precipitation 0.00 in - - ()
Sea Level Pressure  
Sea Level Pressure 30.20 in    
Wind  
Wind Speed 0 mph (ENE)    
Max Wind Speed 5 mph    
Max Gust Speed -    
Visibility 9 miles    
Events      
Averages and records for this station are not official NWS values.
T = Trace of Precipitation, MM = Missing Value Source: NWS Daily Summary

Daily Weather History Graph

Daily Weather History Graph

Search for Another Location

Airport:

Trip Planner

Search our weather history database for the weather conditions in past years. The results will help you decide how hot, cold, wet, or windy it might be!

Date:

Astronomy

Nov. 20, 2012 Rise Set
Actual Time 6:50 AM EST 4:34 PM EST
Civil Twilight 6:20 AM EST 5:04 PM EST
Nautical Twilight 5:47 AM EST 5:38 PM EST
Astronomical Twilight 5:14 AM EST 6:10 PM EST
Moon 12:22 PM EST (11/20) No Moon Set
Length of Visible Light 10h 43m
Length of Day
9h 44m
Waxing Crescent, 51% of the Moon is Illuminated
Nov 20
Waxing Crescent
Nov 28
Full
Dec 6
Last Quarter
Dec 13
New
Dec 20
First Quarter

Hourly Weather History & Observations

Time (EST) Temp. Dew Point Humidity Pressure Visibility Wind Dir Wind Speed Gust Speed Precip Events Conditions
12:53 AM 30.9 °F 28.9 °F 92% 30.27 in 7.0 mi Calm Calm - N/A   Clear
1:53 AM 30.0 °F 27.0 °F 88% 30.25 in 10.0 mi Calm Calm - N/A   Clear
2:53 AM 30.0 °F 28.0 °F 92% 30.24 in 9.0 mi Calm Calm - N/A   Clear
3:53 AM 28.9 °F 27.0 °F 92% 30.24 in 7.0 mi Calm Calm - N/A   Clear
4:53 AM 28.9 °F 27.0 °F 92% 30.24 in 8.0 mi Calm Calm - N/A   Clear
5:53 AM 28.0 °F 26.1 °F 92% 30.23 in 8.0 mi Calm Calm - N/A   Clear
6:53 AM 28.0 °F 25.0 °F 88% 30.24 in 8.0 mi Calm Calm - N/A   Clear
7:53 AM 30.0 °F 28.0 °F 92% 30.24 in 7.0 mi Calm Calm - N/A   Clear
8:53 AM 36.0 °F 30.9 °F 82% 30.23 in 10.0 mi Calm Calm - N/A   Clear
9:53 AM 39.0 °F 32.0 °F 76% 30.22 in 10.0 mi Calm Calm - N/A   Clear
10:53 AM 43.0 °F 30.9 °F 62% 30.21 in 10.0 mi Calm Calm - N/A   Clear
11:53 AM 46.9 °F 30.9 °F 54% 30.18 in 10.0 mi Variable 3.5 mph - N/A   Clear
12:53 PM 50.0 °F 30.0 °F 46% 30.17 in 10.0 mi Variable 3.5 mph - N/A   Clear
1:53 PM 50.0 °F 28.0 °F 43% 30.15 in 10.0 mi Calm Calm - N/A   Clear
2:53 PM 51.1 °F 28.0 °F 41% 30.14 in 10.0 mi NE 3.5 mph - N/A   Clear
3:53 PM 48.9 °F 28.0 °F 44% 30.14 in 10.0 mi East 4.6 mph - N/A   Clear
4:53 PM 46.9 °F 28.0 °F 48% 30.15 in 10.0 mi Calm Calm - N/A   Clear
5:53 PM 42.1 °F 30.0 °F 62% 30.16 in 10.0 mi Calm Calm - N/A   Clear
6:53 PM 39.9 °F 30.0 °F 68% 30.17 in 10.0 mi Calm Calm - N/A   Clear
7:53 PM 39.0 °F 30.0 °F 70% 30.17 in 10.0 mi Calm Calm - N/A   Clear
8:53 PM 36.0 °F 28.9 °F 76% 30.17 in 10.0 mi Calm Calm - N/A   Clear
9:53 PM 36.0 °F 28.9 °F 76% 30.18 in 10.0 mi Calm Calm - N/A   Clear
10:53 PM 37.0 °F 30.0 °F 76% 30.18 in 10.0 mi Calm Calm - N/A   Clear
11:53 PM 36.0 °F 30.0 °F 79% 30.18 in 10.0 mi Calm Calm - N/A   Clear